Flag for Belgium Weather past 2 weeks in Mons, Belgium

Now
50 °F

Light rain. Fog.


Feels Like: 45 °F
Forecast: 42 / 54 °F
Wind: 13 mph from Southwest

Location: Charleroi / Gosselies

Current Time: Dec 18, 2014 at 3:40:57 AM

Latest Report: Dec 18, 2014 at 2:50 AM


Visibility: 2 mi

Pressure: 29.86 "Hg

Humidity: 100%

Dew point: 50 °F

Location of MonsLocation

Historic Weather in Mons — Graph

°F

Mons temperature yesterday

Maximum temperature yesterday: 50 °F (at 3:20 PM)
Minimum temperature yesterday: 36 °F (at 12:20 AM)
Average temperature yesterday: 44 °F

Past Weeks' High & Low Weather Summary

 TemperatureHumidityPressure
High50 °F (Dec 17, 3:20 PM)100% (Dec 3, 3:20 PM)30.39 "Hg (Dec 3, 3:20 PM)
Low28 °F (Dec 3, 5:50 PM)71% (Dec 10, 2:20 PM)29.45 "Hg (Dec 12, 2:20 PM)
Average38 °F92%29.99 "Hg
* Reported Dec 3 2:20 AM — Dec 18 2:20 AM, Mons, Weather by CustomWeather, © 2014

Note: Actual official high and low records may vary slightly from our data, if they occured in-between our weather recording intervals... More about our weather records

Advertising

Mons weather history for previous 24 hours

 ConditionsComfort  
Time TempWeatherWind HumidityBarometerVisibility
2:20 AM
Dec 18
50 °FFog.12 mph94%29.86 "Hg2 mi
1:50 AM50 °FFog.13 mph94%29.86 "Hg1 mi
1:20 AM50 °FFog.12 mph94%29.86 "Hg1 mi
12:50 AM50 °FFog.10 mph94%29.86 "Hg1 mi
12:20 AM50 °FFog.10 mph94%29.86 "Hg3 mi
11:50 PM
Dec 17
50 °FFog.12 mph94%29.86 "Hg3 mi
11:20 PM50 °FFog.10 mph94%29.86 "Hg3 mi
10:50 PM50 °FFog.10 mph94%29.86 "Hg3 mi
10:20 PM50 °FFog.12 mph94%29.86 "Hg2 mi
9:50 PM50 °FFog.14 mph94%29.86 "Hg2 mi
9:20 PM50 °FPassing clouds.10 mph94%29.86 "Hg4 mi
8:50 PM50 °FPassing clouds.9 mph94%29.83 "Hg4 mi
8:20 PM50 °FPassing clouds.10 mph94%29.83 "Hg4 mi
7:50 PM50 °FFog.10 mph94%29.83 "Hg3 mi
7:20 PM50 °FFog.7 mph94%29.80 "Hg3 mi
6:50 PM50 °FFog.8 mph94%29.80 "Hg3 mi
6:20 PM50 °FFog.8 mph94%29.77 "Hg3 mi
5:50 PM50 °FPassing clouds.9 mph94%29.77 "Hg3 mi
5:20 PM50 °FPassing clouds.8 mph94%29.77 "Hg2 mi
4:50 PM50 °FPassing clouds.7 mph94%29.74 "Hg2 mi
4:20 PM50 °FDrizzle. Partly sunny.8 mph94%29.74 "Hg2 mi
3:50 PM50 °FDrizzle. Partly sunny.8 mph94%29.74 "Hg3 mi
3:20 PM50 °FDrizzle. Partly sunny.8 mph94%29.71 "Hg2 mi
2:50 PM48 °FDrizzle. Partly sunny.9 mph100%29.68 "Hg1 mi
2:20 PM48 °FDrizzle. Partly sunny.12 mph100%29.68 "Hg3 mi
1:50 PM48 °FDrizzle. Partly sunny.9 mph94%29.68 "Hg3 mi
1:20 PM46 °FDrizzle. Partly sunny.10 mph100%29.68 "Hg2 mi
12:50 PM45 °FDrizzle. Partly sunny.12 mph100%29.68 "Hg1 mi
12:20 PM45 °FDrizzle. Partly sunny.12 mph100%29.68 "Hg1 mi
11:50 AM45 °FDrizzle. Partly sunny.13 mph93%29.68 "Hg1 mi
11:20 AM43 °FDrizzle. Partly sunny.16 mph100%29.68 "Hg1 mi
10:50 AM43 °FDrizzle. Partly sunny.18 mph93%29.68 "Hg1 mi
10:20 AM43 °FDrizzle. Partly sunny.20 mph93%29.68 "Hg1 mi
9:50 AM43 °FDrizzle. Partly sunny.22 mph93%29.68 "Hg3 mi
9:20 AM41 °FDrizzle. Partly sunny.23 mph93%29.68 "Hg3 mi
8:50 AM41 °FDrizzle. Partly sunny.24 mph93%29.68 "Hg2 mi
8:20 AM41 °FLight rain. Passing clouds.21 mph93%29.71 "Hg2 mi
7:50 AM41 °FLight rain. Passing clouds.20 mph93%29.71 "Hg2 mi
7:20 AM39 °FLight rain. Passing clouds.17 mph93%29.71 "Hg3 mi
6:50 AM39 °FLight rain. Partly cloudy.17 mph93%29.74 "Hg5 mi
6:20 AM39 °FLight rain. Passing clouds.17 mph93%29.80 "Hg4 mi
5:50 AM39 °FLight rain. Passing clouds.15 mph93%29.80 "Hg6 mi
5:20 AM39 °FLight rain. Passing clouds.14 mph93%29.83 "HgN/A
4:50 AM39 °FPassing clouds.14 mph87%29.83 "HgN/A
4:20 AM39 °FPassing clouds.15 mph87%29.86 "Hg5 mi
3:50 AM39 °FPassing clouds.14 mph87%29.86 "Hg5 mi
3:20 AM39 °FPassing clouds.13 mph87%29.89 "Hg5 mi
Weather by CustomWeather, © 2014

See weather overviewHow to use our weather pages